EDT,Max TemperatureF,Mean TemperatureF,Min TemperatureF,Max Dew PointF,MeanDew PointF,Min DewpointF,Max Humidity, Mean Humidity, Min Humidity, Max Sea Level PressureIn, Mean Sea Level PressureIn, Min Sea Level PressureIn, Max VisibilityMiles, Mean VisibilityMiles, Min VisibilityMiles, Max Wind SpeedMPH, Mean Wind SpeedMPH, Max Gust SpeedMPH,PrecipitationIn, CloudCover, Events, WindDirDegrees
2012-9-1,73,66,58,63,57,51,96,72,46,30.13,30.02,29.85,10,10,7,12,5,,0.00,3,,98
2012-9-2,72,64,58,60,58,56,96,86,58,30.17,30.12,30.09,10,10,7,12,3,,0.02,6,Rain,91
2012-9-3,74,65,57,60,58,55,100,84,60,30.24,30.19,30.16,10,9,2,12,5,,0.00,4,Fog,176
2012-9-4,66,61,56,66,62,53,100,95,82,30.16,30.04,29.87,10,5,0,10,3,,0.43,7,Fog-Rain,101
2012-9-5,82,74,66,74,68,63,100,90,62,29.86,29.77,29.67,10,7,0,14,6,18,0.25,7,Fog-Rain,182
2012-9-6,79,72,64,66,65,63,100,87,61,29.90,29.86,29.83,10,10,8,10,2,,0.00,6,,201
2012-9-7,86,74,63,70,65,55,100,80,34,29.92,29.88,29.83,10,9,5,9,3,,0.00,3,,184
2012-9-8,81,72,64,71,68,62,100,88,63,29.89,29.74,29.62,10,6,1,23,8,32,0.32,7,Rain-Thunderstorm,166
2012-9-9,73,65,56,61,56,50,99,78,46,29.85,29.79,29.68,10,10,10,10,7,,0.01,5,Rain,272
2012-9-10,67,60,51,55,48,42,98,67,47,30.03,29.92,29.85,10,10,10,20,8,28,0.00,3,,301
2012-9-11,73,60,47,53,45,40,87,63,30,30.25,30.16,30.03,10,10,10,9,6,,0.00,1,,261
2012-9-12,75,62,48,55,51,46,96,73,40,30.35,30.32,30.26,10,10,10,10,4,,0.00,0,,175
2012-9-13,82,67,52,61,57,52,99,76,39,30.34,30.29,30.24,10,10,10,10,4,,0.00,0,,198
2012-9-14,80,68,58,64,61,58,99,79,57,30.24,30.15,30.05,10,9,4,12,5,,0.00,2,,179
2012-9-15,74,64,53,61,52,43,96,68,39,30.05,30.01,29.97,10,10,7,20,9,26,0.00,4,Rain,271
2012-9-16,68,58,47,46,42,36,87,60,32,30.08,30.03,29.97,10,10,10,15,6,21,0.00,0,,279
2012-9-17,71,56,42,54,47,40,94,74,40,30.10,30.06,30.02,10,10,10,10,2,,0.00,3,,145
2012-9-18,70,60,51,65,59,51,99,85,69,30.04,29.89,29.68,10,9,6,22,9,32,0.00,8,Rain,150
2012-9-19,71,62,52,70,52,36,100,66,34,30.21,29.92,29.68,10,9,2,17,11,23,0.98,5,Rain,279
2012-9-20,62,54,45,44,41,38,93,66,46,30.29,30.23,30.17,10,10,10,9,6,,0.00,2,,48
2012-9-21,62,52,43,54,49,42,95,85,66,30.18,30.13,30.06,10,9,3,10,4,,0.00,5,,15
2012-9-22,67,60,53,59,56,53,100,93,76,30.05,29.94,29.82,10,6,1,10,7,,0.02,6,Rain,338
2012-9-23,70,62,49,61,50,38,100,69,32,30.08,29.91,29.78,10,10,8,15,8,23,0.00,3,Rain,262
2012-9-24,66,54,42,47,42,36,95,68,32,30.12,30.08,30.04,10,10,10,9,4,,0.00,1,,244
2012-9-25,72,57,42,50,43,38,86,61,34,30.14,30.11,30.08,10,10,10,12,6,22,0.00,2,,210
2012-9-26,73,65,58,61,57,50,87,76,64,30.11,30.04,29.97,10,10,7,12,6,,0.00,8,Rain,196
2012-9-27,67,58,49,61,50,39,100,75,35,30.26,30.12,29.98,10,9,5,16,5,22,0.00,4,Rain,287
2012-9-28,54,49,44,53,49,41,100,92,81,30.26,30.17,30.04,10,5,2,13,4,18,1.04,8,Rain,37
2012-9-29,56,53,50,54,51,49,100,94,82,30.01,29.94,29.89,10,5,1,15,9,21,0.03,8,Rain,3
2012-9-30,58,56,51,56,54,50,100,96,88,29.91,29.78,29.69,10,7,3,9,5,,0.33,6,Rain,275